Regional Weather Roundup
Issued by NWS Newport/Morehead, NC

Home | Current Version | Previous Version | Text Only | Print | Product List | Glossary On
Versions: 1 2 3 4 5 6 7 8 9 10 11 12 13 14 15 16 17 18 19 20 21 22 23 24 25 26 27 28 29 30 31 32 33 34 35 36 37 38 39 40 41 42 43 44 45 46 47 48 49 50
000
ASUS42 KMHX 301522
RWRMHX
WEATHER ROUNDUP FOR EASTERN NORTH CAROLINA
NATIONAL WEATHER SERVICE NEWPORT/MOREHEAD CITY NC
1100 AM EDT THU OCT 30 2014

NOTE: "FAIR" INDICATES FEW OR NO CLOUDS BELOW 12,000 FEET
WITH NO SIGNIFICANT WEATHER AND/OR OBSTRUCTIONS TO VISIBILITY

NCZ015>017-031-032-045>047-102-103-301600-
NORTH COAST

CITY           SKY/WX    TMP DP  RH WIND       PRES   REMARKS
EDENTON        MOSUNNY   60  53  79 N9        30.04S
ELIZABETH CITY MOSUNNY   62  53  72 N13       30.03S
KITTY HAWK     PTSUNNY   65  50  58 NE9G16    30.01R
MANTEO         PTSUNNY   63  49  60 NE10      30.02R

$$

NCZ045>047-081-094-103-104-301600-
CENTRAL COAST

CITY           SKY/WX    TMP DP  RH WIND       PRES   REMARKS
FRISCO         PTSUNNY   65  56  72 NE13G21   29.99R
SWANQUARTER      N/A     63 N/A N/A NE9       29.97S

$$

NCZ095-097-098-100-101-301600-
SOUTHERN COAST

CITY           SKY/WX    TMP DP  RH WIND       PRES   REMARKS
BEAUFORT       PTSUNNY   64  54  69 N17       30.00R
CEDAR ISLAND     N/A     63 N/A N/A N16G22    30.06R
JACKSONVILLE   PTSUNNY   61  48  62 NE16      30.01S
PINEY ISLAND   PTSUNNY   65  54  67 NE15G23   30.01R
WILMINGTON     PTSUNNY   62  53  72 N12       30.00S


$$

NCZ011>013-027>030-043-044-078>080-089-090>093-098-301600-
COASTAL PLAIN

CITY           SKY/WX    TMP DP  RH WIND       PRES   REMARKS
AHOSKIE        NOT AVBL
CLINTON        SUNNY     65  49  57 N10       30.04S
ELIZABETHTOWN  SUNNY     64  49  57 NE3       30.03S
GOLDSBORO      SUNNY     63  52  68 NE12      30.02F
GREENVILLE     MOSUNNY   59  52  77 N5        30.06S
HAVELOCK       PTSUNNY   61  53  75 NE16G22   30.02S
KENANSVILLE    SUNNY     63  47  55 NE6       30.04R
KINSTON        SUNNY     63  50  63 NE7       30.04S
NEW BERN       PTSUNNY   63  53  70 NE13      30.03S
RICHLANDS      SUNNY     63  48  59 NE15      30.03R
ROCKY MOUNT    SUNNY     63  50  62 NE10      30.05S
WASHINGTON     SUNNY     62  51  69 N8        30.03S
WHITEVILLE     SUNNY     64  50  59 NE10      30.01S

$$

AMZ130-135-150-152-154-156-158-170-250-252-270-ANZ085-086-088-633-658-670-301600-
MARINE OBSERVATIONS

STATION/POSITION TIME  TEMP    WIND        PRES    WAVE   SWELL
                       AIR SEA DIR/SP/G            HT/PER HT/PER
                 (UTC) (F)     (DEG/KT/KT) (MB)    (FT/S) (FT/S)
CHESAPEAKE LIGHT 1500   60     360/ 12/ 14 1017.4
64 E VA BEACH    1500   62 67   30/ 16/ 19 1015.5    4/ 5
DUCK             1500   62 67   30/ 12/ 16 1015.7
2 E DUCK         NOT AVBL
10 NE DUCK       1500      67                N/A     4/ 6
OREGON INLET     1500   63 67   10/ 14/ 19 1016.0
13E OREGON INLT  1500      70                N/A     5/ 6
HATTERAS CG      1500   63 70   20/ 15/ 20 1015.8
DIAMOND BUOY     1500   67      10/ 17/ 19 1014.5    4/ 6
17 S OCRACOKE    NOT AVBL
CAPE LOOKOUT     1500   63      10/ 15/ 18 1015.6
BEAUFORT LAB     1500   63 69   30/ 11/ 18 1015.3
30 SE NEW RIVER  1500   64 74   30/ 17/ 23 1014.5    4/ 5
5 SE WRIGHTSVLE  1500   59 71   40/ 16/ 19   N/A
225 S CAPE HAT   1439   76 77  250/ 10/ 12 1014.9    2/ 6   2/ 6
41 SE CHARLESTON 1500   69 77   10/ 12/ 14 1014.2    3/ 5   2/ 8

$$



USA.gov is the U.S. government's official web portal to all federal, state and local government web resources and services.